Regional Weather Roundup
Issued by NWS

Home | Current Version | Previous Version | Text Only | Print | Product List | Glossary On
Versions: 1 2 3 4 5 6 7 8 9 10 11 12 13 14 15 16 17 18 19 20 21 22 23 24 25 26 27 28 29 30 31 32 33 34 35 36 37 38 39 40 41 42 43 44 45 46 47 48 49 50
000
ASUS43 KFSD 240302
RWRSD

WEATHER ROUNDUP FOR SOUTH DAKOTA
NATIONAL WEATHER SERVICE SIOUX FALLS SD
1000 PM CDT SAT MAY 23 2015

NOTE: "FAIR" INDICATES FEW OR NO CLOUDS BELOW 12,000 FEET WITH NO
SIGNIFICANT WEATHER AND/OR OBSTRUCTIONS TO VISIBILITY.


SDZ001>005-009-010-012>017-240400-
NORTHWEST AND NORTH CENTRAL SOUTH DAKOTA

CITY           SKY/WX    TMP DP  RH WIND       PRES   REMARKS
FAITH            N/A     54  49  83 E12       30.07R
MOBRIDGE       CLOUDY    59  54  83 NE6       30.06S
$$

SDZ012>016-024>037-041>051-057-063-072>074-240400-
SOUTHWEST AND SOUTH CENTRAL SOUTH DAKOTA

CITY           SKY/WX    TMP DP  RH WIND       PRES   REMARKS
RAPID CTY ARPT CLOUDY    54  53  97 E13       30.02S
PIERRE         CLOUDY    58  54  86 SE12      30.05R
CUSTER         LGT RAIN  48  46  93 E12       30.04R FOG
ELLSWORTH AFB  CLOUDY    55  55 100 E10       30.02
PHILIP         CLOUDY    57  54  89 E12       30.03S
PINE RIDGE     CLOUDY    54  51  90 E15       29.99R
WINNER         CLOUDY    57  54  89 E9        30.05S
$$

SDZ004>011-016>023-039-040-240400-
NORTHEAST SOUTH DAKOTA

CITY           SKY/WX    TMP DP  RH WIND       PRES   REMARKS
ABERDEEN       CLOUDY    61  51  70 E7        30.08F
WATERTOWN      MOCLDY    58  48  69 NE6       30.09S
BROOKINGS      CLOUDY    63  54  72 CALM      30.10R
$$

SDZ017-020-022-023-036>040-048>070-240400-
SOUTHEAST SOUTH DAKOTA

CITY           SKY/WX    TMP DP  RH WIND       PRES   REMARKS
SIOUX FALLS    CLOUDY    62  54  74 SW3       30.08S
HURON          MOCLDY    59  52  77 CALM      30.07S
CHAMBERLAIN    CLOUDY    57  55  91 E5        30.07R
MITCHELL       CLOUDY    61  55  81 S5        30.08R
YANKTON        CLOUDY    59  54  82 NE5       30.06S
$$

ABBREVIATIONS USED IN REMARKS
   TC - TEMPERATURE IN CELSIUS
  WCI - WIND CHILL INDEX
   HX - HEAT INDEX
  VSB - VISIBILITY




USA.gov is the U.S. government's official web portal to all federal, state and local government web resources and services.